Погода в Иркутске

Погода в Иркутске : погода сейчас, прогноз погоды и архив. Всё, что Вы хотите узнать о погоде в Иркутске!

Поиск расширенной информации на нашем сайте:

Полезная информация: ТехноПоинт Иркутск

Другие новости

Новости СМИ2

Главная страница сайта

Новости сайта

03.07.2017

Напоминаем, что на нашем специализированном сайте Метеоцентр.Азия вы можете получить высокодетализированные автоматические прогнозы погоды по пунктам России, СНГ и мира в авиационном формате (включающие направление и скорость ветра, видимость, явления погоды, количество и форму облачности, нижнюю и верхнюю границу облачности).

Рекомендуем: Комплексное бухгалтерское обслуживание

Погода в Иркутске - сегодня

Время (UTC), дата Ветер
(°,м/с) 
Видим.   Явления Облачность Т
(°С)
Тd
(°С)
f(%) Тe
(°С)
Pmin
(гПа)
dP
(гПа)
Po
(мм)
O2
(г/м3)
Тmin Tmax R s Состояние
почвы
00 23.09.18 060 (СВ) 20000 м    ясно 
+0.3 -1.4 88 +1  1024  -0.2  725  292  -0.5         
03 23.09.18 120 (ЮВ) 20000 м    ясно 
+11.2 +4.5 63 +11  1020.7  -0.9  724  279           
06 23.09.18 150 (ЮВ) 20000 м    ясно 
+15.9 +2.7 41 +16  1017.8  -1.9  722  275           
09 23.09.18 140 (ЮВ) 20000 м    3/0 верхняя 
[Ci fib]
+15.3 +2.3 41 +16  1017  -0.8  722  275           
12 23.09.18 200 (Ю) н/о    4/0 верхняя 
[Ci fib]
+8.7 +3.5 70 +10  1019.1  0.7  722  281    +17.6       
15 23.09.18 050 (СВ) н/о    6/0 верхняя 
[Ci fib]
+6.4 +3.7 83 +7  1019.9  0.3  723  284           
18 23.09.18 070 (В) н/о    8/0 верхняя 
[Ci fib]
+3.2 +1.7 90 +4  1019.8  -0.7  722  287           
21 23.09.18 060 (СВ) н/о    10/0 средняя, верхняя 
[Ac trans|Ci fib]
+2.2 +0.7 90 +3  1019.7  -0.4  722  288           
00 24.09.18 070 (В) 20000 м    10/0 средняя, верхняя 
[Ac trans|Ci fib]
+2.6 +0.9 89 +3  1019.8  0.3  722  288  +2         
03 24.09.18 120 (ЮВ) 20000 м    9/0 верхняя 
[Ci fib]
+10.9 +5.9 71 +11  1017.3  -0.7  722  279           
06 24.09.18 140 (ЮВ) 20000 м    10/0 верхняя 
[Ci fib]
+16 +6.1 52 +17  1015.1  -1.1  721  273           
09 24.09.18 140 (ЮВ) 20000 м    8/0 верхняя 
[Ci fib]
+16.1 +6 51 +17  1014.4  -0.8  720  273           
12 24.09.18 160 (Ю) н/о    6/0 верхняя 
[Ci fib]
+10.8 +4.6 65 +11  1016.3  0.9  721  279    +17.2       
15 24.09.18 120 (ЮВ) н/о    ясно 
+7.5 +4.4 81 +8  1017.3  0.3  721  282           
18 24.09.18 130 (ЮВ) н/о    ясно 
+5.8 +4.9 94 +6  1017.5  -0.1  721  284           
21 24.09.18 110 (В) н/о    4/0 верхняя 
[Ci fib]
+4 +3.1 94 +4  1017.2  -0.7  720  286           
00 25.09.18 100 (В) 20000 м    4/0 верхняя 
[Ci fib]
+3.9 +2.3 89 +3  1017.6  0.3  721  286  +2.3         
03 25.09.18 140 (ЮВ) 20000 м    10/0 верхняя 
[Ci fib]
+12.1 +6.6 69 +12  1014.8  -1  720  277           
06 25.09.18 140 (ЮВ) 20000 м    9/0 верхняя 
[Cs]
+16.6 +5.9 49 +17  1012.3  -1.6  719  272           
09 25.09.18 140 (ЮВ) 20000 м    10/0 верхняя 
[Cc]
+15.8 +4.8 48 +16  1011.1  -1.2  718  273           
12 25.09.18 200 (Ю) н/о    10/0 средняя 
[Ac und]
+10.4 +5.1 70 +12  1012.9  0.7  718  278    +17.1       
15 25.09.18 250 (З) н/о    10/0 средняя, верхняя 
[Ac trans|Cs]
+9.8 +5.4 74 +11  1014.5  1.4  719  279           
18 25.09.18 280 (З) н/о    10/0 верхняя 
[Cs]
+9.4 +6.8 84 +9  1015.9  1.2  720  279           
21 25.09.18 300 (СЗ) н/о    10/10 600 м кучево-дожд. 
[Cb cap]
+10.6 +7.3 80 +11  1015.9  0.3  720  278           
00 26.09.18 300 (СЗ) 20000 м  слаб. ливневой дождь  10/10 600 м кучево-дожд. 
[Cb cap]
+9 +7.3 89 +8  1017.2  0.9  721  280  +9    0.0     
Время (UTC), дата Ветер
(°,м/с) 
Видим.   Явления Облачность Т
(°С)
Тd
(°С)
f(%) Тe
(°С)
Pmin
(гПа)
dP
(гПа)
Po
(мм)
O2
(г/м3)
Тmin Tmax R s Состояние
почвы

Для получения пояснительной информации подведите курсор к названию столбца.

ПОГОДА в Иркутске - архив

Всё, что Вы хотите узнать о погоде в Иркутске - удобно и подробно!

Выберите нужную дату (начиная с 1 января 2015* года) и нажмите кнопку "Найти".
Будут отображены архивные сводки погоды по пункту Иркутск, начиная с указанной даты.


Отображать данные в формате CSV (для использования в таблицах Excel)


Внимание! Наш архив погоды предназначен исключительно для личного некоммерческого использования в познавательных целях. Если Вам необходимы официальные справки о состоянии погоды (для производственных, юридических, коммерческих и т.п. целей), обращайтесь в органы Росгидромета.

*Примечание: данная дата относится к архиву по метеостанциям СССР (Россия, СНГ, Балтия).
Архив по метеостанциям Зарубежной Европы и Азии (кроме Китая) хранится 10 дней, по другим регионам земного шара (Китай, Африка, Америка, Австралия, Океания) - 1 день.

Иркутск - район местоположения метеостанции


Название, широта, долгота, высота метеостанции:
Иркутск (город) 52.3°ш. 104.3°д. 485 м над ур. моря [Российская Федерация]

Дополнительная информация

В oтличие oт бoльшинства пoгoдных сайтoв мы публикуем пoдрoбную метеoинфoрмацию в детальнoм прoфессиoнальнoм фoрмате.

Характеристики температуры и влажнoсти вoздуха измеряются на высoте 2 м в тени вдали oт зданий и деревьев.
Скoрoсть ветра измеряется на высoте 10 м (на урoвне рoста челoвека скoрoсть ветра ниже в 1.5-2 раза). Если метеoстанция нахoдится в гoрoде или в лесу, тo скoрoсть ветра занижена на 2-4 м/с пo сравнению с oткрытым местoм. Скoрoсть ветра над акватoриями крупных рек и oзёр, а также на вершинах хoлмoв на 2-5 м/с выше, чем в oбычных услoвиях.
Атмoсфернoе давление в разных тoчках местнoсти мoжет значительнo oтличаться oт давления на метеoстанции, в зависимoсти oт услoвий рельефа (при пoдъёме на 10 м давление пoнижается примернo на 1 мм рт.ст.).